Current Version              Previous Version:    01  02  03  04  05  06  07  08  09  10  11  12  13  14  15  16  17  18  19  20  21  22  23  24  25  26  27  28  29  30  
   31  32  33  34  35  36  37  38  39  40  41  42  43  44  45  46  47  48  49  50  51  52  53  54  55  56  57  58  59  60  

[Printable]
277
ASUS44 KLUB 202210
RWRTX
WEST TEXAS WEATHER ROUNDUP
NATIONAL WEATHER SERVICE LUBBOCK TX
500 PM CDT SAT SEP 20 2014

NOTE: "FAIR" INDICATES FEW OR NO CLOUDS BELOW 12,000 FEET WITH NO
SIGNIFICANT WEATHER AND/OR OBSTRUCTIONS TO VISIBILITY.

TXZ004-006>008-010-012-014-016-OKZ002-202300-
TEXAS PANHANDLE/OKLAHOMA PANHANDLE

CITY           SKY/WX    TMP DP  RH WIND       PRES   REMARKS
AMARILLO       MOSUNNY   81  62  52 VRB5      30.07F
BORGER         SUNNY     84  60  44 SW3       30.03F
CANADIAN       SUNNY     87  66  48 S7        29.99S
DALHART        SUNNY     85  61  44 S10G17    30.09F
DUMAS          MOSUNNY   85  63  47 SW7       30.07F
GUYMON         SUNNY     89  61  38 S8        30.01S
HEREFORD       MOSUNNY   82  68  62 E9        30.08F
PAMPA          SUNNY     84  60  43 S6        30.05F
PERRYTON       MOSUNNY   89  59  36 SE9       30.02S
$$

TXZ026-029-035-045-048-202300-
SOUTHERN PANHANDLE/SOUTH PLAINS/ROLLING PLAINS

CITY           SKY/WX    TMP DP  RH WIND       PRES   REMARKS
CHILDRESS      MOSUNNY   85  68  56 CALM      29.99F
SEMINOLE       CLOUDY    78  66  66 CALM      30.03R
LUBBOCK        PTSUNNY   77  67  71 E9        30.04S
PLAINVIEW      CLOUDY    75  68  77 E6        30.05S
SNYDER         CLOUDY    76  70  80 SE5       30.01S
$$

TXZ052-054-060>062-072-078-127-140-154-169-202300-
PERMIAN BASIN/CONCHO VALLEY/BIG COUNTRY/EDWARDS PLATEAU

CITY           SKY/WX    TMP DP  RH WIND       PRES   REMARKS
ABILENE        CLOUDY    82  70  66 N3        29.98S
BIG SPRING     CLOUDY    82  69  63 NE10      30.00S
BRADY          SUNNY     81  70  69 E8        29.96F
BROWNWOOD      PTSUNNY   75  73  94 E7        29.97F FOG
JUNCTION       PTSUNNY   85  68  56 E7        29.94S
MIDLAND        CLOUDY    81  72  74 E9        29.98S
ODESSA         MOSUNNY   81  68  64 E8        29.99F
SAN ANGELO     PTSUNNY   83  70  64 E9        29.96R
SONORA         PTSUNNY   84  68  58 E8G16     30.00S
SWEETWATER     CLOUDY    80  70  72 E6        30.02F
WINK           PTSUNNY   83  69  62 NE9       29.96F
$$

TXZ055-058-074-075-080-082-202300-
FAR WEST/SOUTHWEST MOUNTAINS/TRANS PECOS

CITY           SKY/WX    TMP DP  RH WIND       PRES   REMARKS
ALPINE         CLOUDY    69  65  87 CALM      30.13F
DRYDEN           N/A     89  70  53 E10       29.92S
EL PASO        MOSUNNY   87  60  40 NW5       30.00F
FORT STOCKTON  PTSUNNY   86  67  52 VRB6      29.97F
GUADALUPE PASS PTSUNNY   72  63  73 E18         N/A
MARFA          PTSUNNY   75  66  73 NE10      30.10F
PECOS          MOSUNNY   82  70  65 N14G20    29.95S THUNDER
PRESIDIO       FAIR      85  61  44 W12       29.94R
$$

TXZ014-016-019-021>030-083-202300
TEXAS TECH WEST TEXAS MESONET/TEXAS PANHANDLE/NORTHERN SOUTH PLAINS

CITY           SKY/WX    TMP DP  RH WIND       PRES   REMARKS
ABERNATHY 5ENE   N/A     78  67  68 SE7       30.06S
AMARILLO 9NNE    N/A     86  63  46 SW2       30.05S
AMARILLO 7SSE    N/A     81  65  57 CALM      30.07F
AMHERST 1NE      N/A     75  67  76 E7        30.06S
BOOTLEG 11WNW    N/A     80  62  55 E7        30.13F
CANADIAN 6E      N/A     88  65  45 SW3       29.99S
CAPROCK CYN SP   N/A     81  68  64 SE8       30.02S
CHILDRESS 2NNE   N/A     83  69  61 SE15      29.98S
CLARENDON 2WSW   N/A     83  64  51 SE7       30.02F
CLAUDE 12SW      N/A     82  65  57 SE6       30.05F
DIMMITT 2NE      N/A     76  67  75 SE8       30.08S
FLOYDADA 2NNE    N/A     77  67  70 SE6       30.05R
FRIONA 2NE       N/A     78  65  63 E7        30.09F
GOODLETT 3W      N/A     84  68  58 SE12      29.97S
HART 3N          N/A     77  67  71 SE7       30.07S
HEREFORD 2NW     N/A     81  63  53 NE8       30.08F
MCLEAN 1E        N/A     86  63  45 S7        30.01F
MEMPHIS 1NE      N/A     84  67  55 S7        29.98F
MULESHOE 2SSW    N/A     74  68  81 NE6       30.07S
OLTON 6S         N/A     77  64  62 E6        30.06S
PALO DURO SP     N/A     83  65  55 SE3       30.07F
PAMPA 2E         N/A     84  63  48 S5        30.04F
PLAINVIEW 1S     N/A     75  68  77 E6        30.06R
SILVERTON 7ESE   N/A     81  66  61 SE7       30.05S
TULIA 2ENE       N/A     77  67  71 E9        30.06F
TURKEY 2WSW      N/A     83  68  60 S7        30.00F
UMBARGER 3NNE    N/A     81  64  57 E5        30.08F
$$

TXZ033>036-039>041-045>048-202300
TEXAS TECH WEST TEXAS MESONET/SOUTH PLAINS

CITY           SKY/WX    TMP DP  RH WIND       PRES   REMARKS
AIKEN 3WSW       N/A     75  69  81 SE3       30.07S
ANDREWS 2NE      N/A     84  64  51 S1        30.01S
ANTON 6SSW       N/A     74  68  79 E8        30.05S
BROWNFIELD 2S    N/A     74  69  83 E14       30.03S
DENVR CTY 7WNW   N/A     80  64  59 N8        30.03S
GAIL 2ESE        N/A     74  70  89 E6        30.01R
LAMESA 2SE       N/A     73  70  90 NE10      30.02R
LEVELLAND 4S     N/A     73  66  79 E8        30.05R
LUBBOCK 3WNW     N/A     76  66  69 E8        30.05R
MORTON 1ENE      N/A     77  67  70 N6        30.05F
ODONNELL 1N      N/A     70  68  92 E9        30.04R
PLAINS 3N        N/A     77  67  71 NE9       30.04S
RALLS 1SE        N/A     77  69  74 SE6       30.05S
REESE CENTER     N/A     76  66  72 SE6       30.05R
SEAGRAVES 1SW    N/A     78  68  72 E7        30.02R
SEMINOLE 2NNE    N/A     78  67  68 N5        30.02R
SLATON 2NE       N/A     77  68  74 SE7       30.04S
SNYDER 3E        N/A     77  71  80 E7        30.00S
SUNDOWN 8SW      N/A     77  68  72 NE8       30.05R
TAHOKA 3NNE      N/A     73  67  83 E10       30.04R
WOLFFORTH 6SSW   N/A     76  69  77 E8        30.04S
$$

TXZ031-032-036>038-042>044-202300-
TEXAS TECH WEST TEXAS MESONET/ROLLING PLAINS

CITY           SKY/WX    TMP DP  RH WIND       PRES   REMARKS
ASPERMONT 3NE    N/A     83  72  71 E7        29.98S
GRAHAM 5SSW      N/A     72  70  95 E2        30.03S
GUTHRIE 10WSW    N/A     82  69  64 E8        29.98S
HASKELL 1NW      N/A     85  66  54 SE1       29.96F
JAYTON 1SSE      N/A     80  70  71 E2        29.99S
KNOX CITY 3NW    N/A     83  69  61 NE1       29.98S
LK A HENRY 1NW   N/A     78  70  78 E5        30.01R
NORTHFIELD 1S    N/A     84  69  60 S6        29.99S
ODELL 4ENE       N/A     86  69  57 S7        29.97S
PADUCAH 10SW     N/A     80  71  74 SE8       29.99S
POST 1NE         N/A     76  68  77 SE3       30.02S
RRING SPRGS 3N   N/A     82  70  65 SE5       30.01F
SEYMOUR 3NW      N/A     84  71  64 N5        29.95F
SPUR 1W          N/A     80  68  66 SE6       30.00S
WEINERT 2NNE     N/A     83  70  63 S5        29.97S
WHITE RVR 6NE    N/A     77  70  80 S3        30.02S
$$

TXZ052-054-060>062-072-078-127-140-154-169-202300-
TEXAS TECH WEST TEXAS MESONET/PERMIAN BASIN/
CONCHO VALLEY/BIG COUNTRY/EDWARDS PLATEAU

CITY           SKY/WX    TMP DP  RH WIND       PRES   REMARKS
COYANOSA 2N      N/A     86  71  60 NW12      29.95F
JUNCTION 1SSW    N/A     85  69  58 NE5       29.95S
MERTZON 3NNE     N/A     77  70  80 SE14      29.99R
SAN ANGELO 7NW   N/A     83  69  62 E9        29.96S
STRLNG CT 4WSW   N/A     81  71  72 E10       29.98S
ST LAWRNCE 5SW   N/A     78  71  77 SE15      29.99R
SWEETWATR 11SW   N/A     80  70  71 SE9       30.01S
WALL 1E          N/A     83  70  63 E7        29.96F
$$

TXZ055-058-074-075-080-082-202300-
TEXAS TECH WEST TEXAS MESONET/FAR WEST/SOUTHWEST MOUNTAINS/TRANS PECOS

CITY           SKY/WX    TMP DP  RH WIND       PRES   REMARKS
PRSMN GAP BBNP   N/A     79  66  65 NE18      29.95S
GUADLPE MTN NP   N/A     70  64  81 E6        30.16S
$$